BAW22G EGKK-MDPC

Flight info

Callsign BAW22G
Flight time N/A
Altitude 38000
Route IMVUR N63 SAM N19 ADKIK DCT JOZMA DCT LULOX/M082F380 DCT ATSUR DCT SOMAX DCT 49N020W 47N030W 44N040W 40N050W/M082F400 35N055W DCT SIFEN DCT TARMO M597 KEEKA/N0469F400 DCT KATOK KATOK1W
Aircraft B772/H-SDE2E3FGHIJ5LORVWXY/LB1D1

Departure

Time N/A
Airport London Gatwick Airport (EGKK)

Arrival

Time 2026-04-30 14:33
Airport Punta Cana International Airport (MDPC)
Time Latitude Longitude Altitude Speed Heading
2026-04-30 11:24 36.05927 -54.01136 37815 ft 481 kts 223°
2026-04-30 11:25 35.97946 -54.08703 37840 ft 482 kts 223°
2026-04-30 11:26 35.87284 -54.18780 37830 ft 482 kts 223°
2026-04-30 11:26 35.81954 -54.23805 37830 ft 482 kts 223°
2026-04-30 11:27 35.76624 -54.28821 37825 ft 482 kts 223°
2026-04-30 11:27 35.72195 -54.32981 37818 ft 481 kts 224°
2026-04-30 11:28 35.64214 -54.40465 37823 ft 480 kts 224°
2026-04-30 11:29 35.58038 -54.46244 37814 ft 479 kts 224°
2026-04-30 11:29 35.50976 -54.52838 37825 ft 479 kts 224°
2026-04-30 11:30 35.43024 -54.60244 37823 ft 478 kts 224°
2026-04-30 11:31 35.37725 -54.65169 37832 ft 478 kts 224°
2026-04-30 11:31 35.32425 -54.70087 37825 ft 478 kts 224°
2026-04-30 11:32 35.27117 -54.75004 37799 ft 478 kts 225°
2026-04-30 11:32 35.21819 -54.79902 37820 ft 477 kts 225°
2026-04-30 11:33 35.13879 -54.87230 37828 ft 477 kts 225°
2026-04-30 11:33 35.08580 -54.92112 37828 ft 477 kts 225°
2026-04-30 11:34 35.03285 -54.96982 37828 ft 477 kts 224°
2026-04-30 11:34 34.97815 -55.01627 37820 ft 484 kts 217°
2026-04-30 11:35 34.91971 -55.05624 37818 ft 484 kts 217°
2026-04-30 11:35 34.86088 -55.09609 37824 ft 483 kts 217°
2026-04-30 11:36 34.80219 -55.13615 37816 ft 483 kts 217°
2026-04-30 11:36 34.74362 -55.17631 37811 ft 481 kts 217°
2026-04-30 11:37 34.68524 -55.21634 37832 ft 481 kts 217°
2026-04-30 11:37 34.62698 -55.25623 37821 ft 480 kts 217°
2026-04-30 11:38 34.56877 -55.29599 37818 ft 479 kts 217°
2026-04-30 11:38 34.51097 -55.33541 37820 ft 479 kts 217°
2026-04-30 11:39 34.45282 -55.37501 37822 ft 479 kts 217°
2026-04-30 11:39 34.39478 -55.41445 37815 ft 478 kts 217°
2026-04-30 11:40 34.33676 -55.45384 37817 ft 477 kts 217°
2026-04-30 11:40 34.27882 -55.49310 37818 ft 477 kts 217°
2026-04-30 11:41 34.22085 -55.53231 37809 ft 476 kts 217°
2026-04-30 11:41 34.16295 -55.57142 37814 ft 476 kts 217°
2026-04-30 11:42 34.10550 -55.61016 37817 ft 476 kts 217°
2026-04-30 11:42 34.04762 -55.64914 37811 ft 476 kts 217°
2026-04-30 11:43 33.98984 -55.68798 37821 ft 475 kts 217°
2026-04-30 11:43 33.93201 -55.72679 37816 ft 475 kts 217°
2026-04-30 11:44 33.87426 -55.76549 37812 ft 475 kts 217°
2026-04-30 11:44 33.81650 -55.80414 37809 ft 474 kts 217°
2026-04-30 11:45 33.75886 -55.84265 37814 ft 474 kts 217°
2026-04-30 11:45 33.70117 -55.88113 37807 ft 473 kts 217°
2026-04-30 11:46 33.64399 -55.91921 37819 ft 473 kts 217°
2026-04-30 11:46 33.58636 -55.95754 37815 ft 473 kts 217°
2026-04-30 11:47 33.52877 -55.99577 37807 ft 473 kts 217°
2026-04-30 11:47 33.47116 -56.03396 37817 ft 473 kts 217°
2026-04-30 11:48 33.41355 -56.07210 37815 ft 473 kts 217°
2026-04-30 11:48 33.35593 -56.11018 37823 ft 473 kts 217°
2026-04-30 11:49 33.29867 -56.14797 37825 ft 473 kts 217°
2026-04-30 11:49 33.24109 -56.18591 37820 ft 473 kts 217°
2026-04-30 11:50 33.18349 -56.22380 37821 ft 473 kts 217°
2026-04-30 11:50 33.12592 -56.26162 37809 ft 472 kts 217°
2026-04-30 11:51 33.06840 -56.29934 37823 ft 472 kts 217°
2026-04-30 11:51 33.01091 -56.33698 37821 ft 471 kts 217°
2026-04-30 11:52 32.95342 -56.37458 37818 ft 470 kts 217°
2026-04-30 11:52 32.89601 -56.41207 37824 ft 470 kts 217°
2026-04-30 11:53 32.83866 -56.44947 37825 ft 469 kts 217°
2026-04-30 11:53 32.78141 -56.48674 37821 ft 469 kts 217°
2026-04-30 11:54 32.72456 -56.52369 37822 ft 468 kts 217°
2026-04-30 11:54 32.66737 -56.56081 37830 ft 468 kts 217°
2026-04-30 11:55 32.61027 -56.59783 37817 ft 467 kts 217°
2026-04-30 11:55 32.55324 -56.63473 37827 ft 467 kts 217°
2026-04-30 11:56 32.49628 -56.67154 37828 ft 466 kts 217°
2026-04-30 11:56 32.43937 -56.70827 37829 ft 466 kts 217°
2026-04-30 11:57 32.38248 -56.74492 37823 ft 464 kts 217°
2026-04-30 11:57 32.32576 -56.78142 37827 ft 464 kts 217°
2026-04-30 11:58 32.26908 -56.81784 37830 ft 463 kts 217°
2026-04-30 11:58 32.21273 -56.85400 37823 ft 463 kts 217°
2026-04-30 11:59 32.15611 -56.89028 37830 ft 463 kts 217°
2026-04-30 11:59 32.09949 -56.92651 37832 ft 463 kts 217°
2026-04-30 12:00 32.04285 -56.96270 37813 ft 463 kts 217°
2026-04-30 12:00 31.98623 -56.99882 37834 ft 463 kts 217°
2026-04-30 12:01 31.92959 -57.03491 37838 ft 463 kts 217°
2026-04-30 12:01 31.87289 -57.07099 37840 ft 463 kts 217°
2026-04-30 12:02 31.81616 -57.10702 37839 ft 463 kts 216°
2026-04-30 12:02 31.75942 -57.14302 37843 ft 464 kts 216°
2026-04-30 12:03 31.67423 -57.19697 37844 ft 464 kts 216°
2026-04-30 12:04 31.61740 -57.23290 37840 ft 464 kts 216°
2026-04-30 12:04 31.56063 -57.26873 37847 ft 464 kts 216°
2026-04-30 12:05 31.50370 -57.30462 37848 ft 464 kts 216°
2026-04-30 12:05 31.44686 -57.34040 37848 ft 464 kts 216°
2026-04-30 12:06 31.38992 -57.37620 37850 ft 464 kts 216°
2026-04-30 12:06 31.33291 -57.41199 37852 ft 464 kts 216°
2026-04-30 12:07 31.27601 -57.44766 37852 ft 464 kts 216°
2026-04-30 12:07 31.21901 -57.48334 37861 ft 464 kts 216°
2026-04-30 12:08 31.16247 -57.51869 37869 ft 464 kts 216°
2026-04-30 12:08 31.10516 -57.55447 37862 ft 464 kts 216°
2026-04-30 12:09 31.04860 -57.58974 37824 ft 464 kts 215°
2026-04-30 12:09 30.99162 -57.62521 37850 ft 464 kts 215°
2026-04-30 12:10 30.93478 -57.66055 37873 ft 464 kts 215°
2026-04-30 12:10 30.87778 -57.69595 37869 ft 464 kts 215°
2026-04-30 12:11 30.82089 -57.73123 37853 ft 463 kts 215°
2026-04-30 12:11 30.77317 -57.76078 37866 ft 464 kts 215°
2026-04-30 12:12 30.71657 -57.79579 37870 ft 464 kts 215°
2026-04-30 12:12 30.65954 -57.83102 37872 ft 464 kts 215°
2026-04-30 12:13 30.60245 -57.86624 37871 ft 465 kts 214°
2026-04-30 12:13 30.54531 -57.90145 37875 ft 465 kts 214°
2026-04-30 12:14 30.48808 -57.93665 37872 ft 466 kts 214°
2026-04-30 12:14 30.43081 -57.97184 37860 ft 466 kts 214°
2026-04-30 12:15 30.37350 -58.00701 37876 ft 466 kts 214°
2026-04-30 12:15 30.31610 -58.04218 37883 ft 467 kts 214°
2026-04-30 12:16 30.25861 -58.07736 37886 ft 468 kts 214°
2026-04-30 12:16 30.20105 -58.11254 37896 ft 468 kts 214°
2026-04-30 12:17 30.11456 -58.16531 37893 ft 469 kts 214°
2026-04-30 12:17 30.05681 -58.20048 37899 ft 469 kts 214°
2026-04-30 12:18 29.99901 -58.23564 37891 ft 470 kts 214°
2026-04-30 12:18 29.94116 -58.27078 37903 ft 470 kts 214°
2026-04-30 12:19 29.88359 -58.30571 37903 ft 470 kts 214°
2026-04-30 12:19 29.82564 -58.34082 37904 ft 471 kts 213°
2026-04-30 12:20 29.76769 -58.37589 37901 ft 471 kts 213°
2026-04-30 12:20 29.70949 -58.41107 37908 ft 472 kts 213°
2026-04-30 12:21 29.65128 -58.44620 37915 ft 473 kts 213°
2026-04-30 12:21 29.59288 -58.48140 37894 ft 474 kts 213°
2026-04-30 12:22 29.53430 -58.51666 37911 ft 475 kts 213°
2026-04-30 12:22 29.47573 -58.55186 37913 ft 476 kts 213°
2026-04-30 12:23 29.41694 -58.58715 37912 ft 477 kts 213°
2026-04-30 12:23 29.35815 -58.62240 37911 ft 477 kts 213°
2026-04-30 12:24 29.29932 -58.65762 37919 ft 477 kts 213°
2026-04-30 12:24 29.24055 -58.69276 37921 ft 477 kts 213°
2026-04-30 12:25 29.18173 -58.72788 37924 ft 477 kts 213°
2026-04-30 12:25 29.12292 -58.76295 37921 ft 477 kts 213°
2026-04-30 12:26 29.06408 -58.79801 37931 ft 477 kts 213°
2026-04-30 12:26 29.00516 -58.83306 37935 ft 478 kts 213°
2026-04-30 12:27 28.94617 -58.86811 37922 ft 478 kts 212°
2026-04-30 12:27 28.88706 -58.90318 37939 ft 478 kts 212°
2026-04-30 12:28 28.82794 -58.93821 37939 ft 479 kts 212°
2026-04-30 12:28 28.76874 -58.97324 37939 ft 480 kts 212°
2026-04-30 12:29 28.70950 -59.00826 37934 ft 480 kts 212°
2026-04-30 12:29 28.65024 -59.04323 37953 ft 480 kts 212°
2026-04-30 12:30 28.59091 -59.07821 37950 ft 480 kts 212°
2026-04-30 12:30 28.53154 -59.11316 37953 ft 481 kts 212°
2026-04-30 12:31 28.47218 -59.14807 37946 ft 480 kts 211°
2026-04-30 12:31 28.41288 -59.18288 37957 ft 479 kts 211°
2026-04-30 12:32 28.35366 -59.21762 37964 ft 479 kts 211°
2026-04-30 12:32 28.29447 -59.25229 37948 ft 478 kts 211°
2026-04-30 12:33 28.23579 -59.28662 37958 ft 477 kts 211°
2026-04-30 12:33 28.17683 -59.32107 37970 ft 476 kts 211°
2026-04-30 12:34 28.11791 -59.35546 37968 ft 476 kts 211°
2026-04-30 12:34 28.05901 -59.38979 37960 ft 476 kts 211°
2026-04-30 12:35 28.00021 -59.42402 37963 ft 475 kts 211°
2026-04-30 12:35 27.94147 -59.45817 37962 ft 474 kts 211°
2026-04-30 12:36 27.88276 -59.49227 37967 ft 474 kts 211°
2026-04-30 12:36 27.82409 -59.52630 37976 ft 474 kts 211°
2026-04-30 12:37 27.76540 -59.56030 37978 ft 473 kts 211°
2026-04-30 12:37 27.70686 -59.59416 37977 ft 473 kts 211°
2026-04-30 12:38 27.64821 -59.62806 37984 ft 473 kts 211°
2026-04-30 12:38 27.58971 -59.66183 37980 ft 472 kts 211°
2026-04-30 12:39 27.53121 -59.69555 37984 ft 472 kts 211°
2026-04-30 12:39 27.47311 -59.72900 37983 ft 472 kts 211°
2026-04-30 12:40 27.41464 -59.76263 37983 ft 472 kts 211°
2026-04-30 12:40 27.35622 -59.79618 37979 ft 471 kts 212°
2026-04-30 12:41 27.29796 -59.82961 37983 ft 469 kts 212°
2026-04-30 12:41 27.23982 -59.86293 37986 ft 469 kts 212°
2026-04-30 12:42 27.18176 -59.89618 37985 ft 468 kts 211°
2026-04-30 12:42 27.12369 -59.92939 37987 ft 468 kts 211°
2026-04-30 12:43 27.06557 -59.96259 37993 ft 469 kts 211°
2026-04-30 12:43 27.00781 -59.99658 37989 ft 467 kts 215°
2026-04-30 12:44 26.95560 -60.03910 37992 ft 463 kts 223°
2026-04-30 12:44 26.90581 -60.08477 37992 ft 462 kts 223°
2026-04-30 12:45 26.85604 -60.13012 37988 ft 461 kts 223°
2026-04-30 12:45 26.80627 -60.17517 37999 ft 459 kts 223°
2026-04-30 12:46 26.75652 -60.22004 37992 ft 459 kts 223°
2026-04-30 12:46 26.70679 -60.26483 37995 ft 458 kts 223°
2026-04-30 12:47 26.65722 -60.30944 37994 ft 457 kts 223°
2026-04-30 12:47 26.60778 -60.35388 37993 ft 455 kts 223°
2026-04-30 12:48 26.55847 -60.39817 37993 ft 454 kts 223°
2026-04-30 12:48 26.50923 -60.44233 37997 ft 454 kts 223°
2026-04-30 12:49 26.46037 -60.48610 37997 ft 452 kts 223°
2026-04-30 12:49 26.41133 -60.52999 38000 ft 451 kts 223°
2026-04-30 12:50 26.36234 -60.57378 37999 ft 451 kts 223°
2026-04-30 12:50 26.31336 -60.61752 38000 ft 451 kts 223°
2026-04-30 12:51 26.26438 -60.66121 37992 ft 451 kts 223°
2026-04-30 12:51 26.21546 -60.70478 37999 ft 450 kts 223°
2026-04-30 12:52 26.16667 -60.74821 38002 ft 449 kts 223°
2026-04-30 12:52 26.11783 -60.79163 38001 ft 449 kts 223°
2026-04-30 12:53 26.06896 -60.83502 38003 ft 450 kts 223°
2026-04-30 12:53 26.02009 -60.87836 37999 ft 449 kts 223°
2026-04-30 12:54 25.97918 -60.91461 37997 ft 449 kts 223°
2026-04-30 12:54 25.93039 -60.95780 38014 ft 448 kts 223°
2026-04-30 12:55 25.88190 -61.00068 38003 ft 448 kts 223°
2026-04-30 12:55 25.83315 -61.04374 37982 ft 448 kts 223°
2026-04-30 12:56 25.78442 -61.08673 38009 ft 447 kts 223°
2026-04-30 12:56 25.73582 -61.12956 38008 ft 446 kts 223°
2026-04-30 12:57 25.68727 -61.17231 38008 ft 445 kts 223°
2026-04-30 12:57 25.63877 -61.21496 38011 ft 445 kts 223°
2026-04-30 12:58 25.59030 -61.25754 38000 ft 444 kts 224°
2026-04-30 12:58 25.54193 -61.29999 38010 ft 443 kts 224°
2026-04-30 12:59 25.49364 -61.34233 38018 ft 443 kts 223°
2026-04-30 12:59 25.44539 -61.38459 38006 ft 443 kts 223°
2026-04-30 13:00 25.39703 -61.42690 38008 ft 443 kts 223°
2026-04-30 13:00 25.34889 -61.46897 38009 ft 443 kts 223°
2026-04-30 13:01 25.30059 -61.51114 38019 ft 442 kts 223°
2026-04-30 13:01 25.25231 -61.55323 38017 ft 442 kts 223°
2026-04-30 13:02 25.20398 -61.59535 38019 ft 442 kts 223°
2026-04-30 13:02 25.15568 -61.63738 38018 ft 442 kts 223°
2026-04-30 13:03 25.10736 -61.67938 38011 ft 442 kts 224°
2026-04-30 13:03 25.05909 -61.72130 38023 ft 442 kts 224°
2026-04-30 13:04 25.01084 -61.76317 38022 ft 442 kts 224°
2026-04-30 13:04 24.96258 -61.80500 38021 ft 442 kts 224°
2026-04-30 13:05 24.91424 -61.84685 38022 ft 442 kts 224°
2026-04-30 13:06 24.84169 -61.90958 38021 ft 442 kts 224°
2026-04-30 13:06 24.79329 -61.95138 38022 ft 442 kts 223°
2026-04-30 13:07 24.74486 -61.99316 38022 ft 442 kts 223°
2026-04-30 13:07 24.69641 -62.03492 38021 ft 442 kts 223°
2026-04-30 13:08 24.64795 -62.07663 38018 ft 442 kts 224°
2026-04-30 13:08 24.59953 -62.11827 38023 ft 442 kts 224°
2026-04-30 13:09 24.55112 -62.15988 38030 ft 442 kts 224°
2026-04-30 13:09 24.50269 -62.20145 38027 ft 442 kts 224°
2026-04-30 13:10 24.45424 -62.24300 38032 ft 442 kts 223°
2026-04-30 13:10 24.40578 -62.28450 38023 ft 441 kts 224°
2026-04-30 13:11 24.35735 -62.32594 38034 ft 441 kts 224°
2026-04-30 13:11 24.30892 -62.36735 38038 ft 441 kts 224°
2026-04-30 13:12 24.26048 -62.40873 38033 ft 441 kts 224°
2026-04-30 13:12 24.21230 -62.44984 38027 ft 441 kts 224°
2026-04-30 13:13 24.13966 -62.51183 38026 ft 440 kts 225°
2026-04-30 13:14 24.07451 -62.58115 38032 ft 435 kts 230°
2026-04-30 13:14 24.01034 -62.65150 38038 ft 435 kts 230°
2026-04-30 13:15 23.94591 -62.72171 38019 ft 435 kts 230°
2026-04-30 13:16 23.90295 -62.76843 38028 ft 435 kts 230°
2026-04-30 13:16 23.86010 -62.81500 38037 ft 435 kts 230°
2026-04-30 13:17 23.79568 -62.88494 38043 ft 435 kts 230°
2026-04-30 13:18 23.73146 -62.95454 38041 ft 435 kts 230°
2026-04-30 13:18 23.66707 -63.02423 38030 ft 434 kts 230°
2026-04-30 13:19 23.62416 -63.07061 38028 ft 434 kts 230°
2026-04-30 13:19 23.58125 -63.11696 38027 ft 434 kts 230°
2026-04-30 13:20 23.53834 -63.16326 38031 ft 434 kts 230°
2026-04-30 13:20 23.49541 -63.20952 38030 ft 434 kts 230°
2026-04-30 13:21 23.45249 -63.25574 38035 ft 434 kts 231°
2026-04-30 13:22 23.38819 -63.32489 38037 ft 433 kts 231°
2026-04-30 13:22 23.32383 -63.39401 38037 ft 433 kts 230°
2026-04-30 13:23 23.25939 -63.46311 38046 ft 433 kts 230°
2026-04-30 13:24 23.17353 -63.55503 38033 ft 434 kts 230°
2026-04-30 13:25 23.08742 -63.64706 38037 ft 435 kts 230°
2026-04-30 13:26 22.97939 -63.76225 38025 ft 436 kts 230°
2026-04-30 13:28 22.87109 -63.87745 38033 ft 436 kts 230°
2026-04-30 13:28 22.80599 -63.94656 38032 ft 437 kts 230°
2026-04-30 13:29 22.71920 -64.03855 38027 ft 435 kts 230°
2026-04-30 13:31 22.61116 -64.15282 38031 ft 434 kts 230°
2026-04-30 13:32 22.50354 -64.26641 38035 ft 433 kts 230°
2026-04-30 13:33 22.41722 -64.35732 38031 ft 433 kts 230°
2026-04-30 13:34 22.35236 -64.42553 38034 ft 434 kts 230°
2026-04-30 13:35 22.26560 -64.51661 38036 ft 435 kts 230°
2026-04-30 13:36 22.17890 -64.60744 38037 ft 433 kts 230°
2026-04-30 13:36 22.11414 -64.67519 38039 ft 432 kts 230°
2026-04-30 13:37 22.05679 -64.73511 38022 ft 431 kts 230°
2026-04-30 13:38 21.99233 -64.80238 38023 ft 430 kts 230°
2026-04-30 13:39 21.90662 -64.89168 38029 ft 428 kts 230°
2026-04-30 13:40 21.84250 -64.95839 38030 ft 427 kts 230°
2026-04-30 13:40 21.79976 -65.00281 38032 ft 427 kts 230°
2026-04-30 13:41 21.75695 -65.04727 38029 ft 428 kts 230°
2026-04-30 13:41 21.71409 -65.09173 38021 ft 428 kts 230°
2026-04-30 13:42 21.67122 -65.13615 38031 ft 428 kts 230°
2026-04-30 13:42 21.60688 -65.20277 38027 ft 428 kts 230°
2026-04-30 13:43 21.56426 -65.24685 38027 ft 428 kts 230°
2026-04-30 13:43 21.52134 -65.29120 38027 ft 428 kts 230°
2026-04-30 13:44 21.47841 -65.33552 38014 ft 428 kts 230°
2026-04-30 13:44 21.43554 -65.37974 38026 ft 427 kts 230°
2026-04-30 13:45 21.37128 -65.44595 38026 ft 427 kts 230°
2026-04-30 13:46 21.32848 -65.49001 38025 ft 426 kts 230°
2026-04-30 13:46 21.28568 -65.53403 38025 ft 426 kts 230°
2026-04-30 13:47 21.24287 -65.57802 38024 ft 426 kts 230°
2026-04-30 13:47 21.20010 -65.62193 38019 ft 425 kts 230°
2026-04-30 13:48 21.15737 -65.66577 38018 ft 425 kts 230°
2026-04-30 13:48 21.11464 -65.70956 38019 ft 425 kts 230°
2026-04-30 13:49 21.07195 -65.75328 38019 ft 425 kts 230°
2026-04-30 13:49 21.02925 -65.79698 38017 ft 425 kts 230°
2026-04-30 13:50 20.98660 -65.84059 38020 ft 424 kts 230°
2026-04-30 13:50 20.92256 -65.90600 38016 ft 424 kts 230°
2026-04-30 13:51 20.87982 -65.94961 38027 ft 424 kts 229°
2026-04-30 13:51 20.83717 -65.99309 38018 ft 424 kts 229°
2026-04-30 13:52 20.79442 -66.03664 38019 ft 424 kts 229°
2026-04-30 13:52 20.75171 -66.08010 38019 ft 424 kts 229°
2026-04-30 13:53 20.70901 -66.12353 38019 ft 424 kts 229°
2026-04-30 13:53 20.66656 -66.16666 38023 ft 423 kts 230°
2026-04-30 13:54 20.62393 -66.20994 38022 ft 423 kts 230°
2026-04-30 13:54 20.58125 -66.25324 38011 ft 423 kts 229°
2026-04-30 13:55 20.53854 -66.29655 38017 ft 423 kts 229°
2026-04-30 13:55 20.49591 -66.33972 38021 ft 423 kts 229°
2026-04-30 13:56 20.45323 -66.38291 38021 ft 423 kts 229°
2026-04-30 13:56 20.41055 -66.42607 38009 ft 423 kts 229°
2026-04-30 13:57 20.36781 -66.46925 38016 ft 424 kts 229°
2026-04-30 13:57 20.32501 -66.51247 38021 ft 424 kts 229°
2026-04-30 13:58 20.26086 -66.57716 38020 ft 425 kts 229°
2026-04-30 13:59 20.21792 -66.62044 38014 ft 426 kts 229°
2026-04-30 13:59 20.17485 -66.66379 38022 ft 426 kts 229°
2026-04-30 14:00 20.13187 -66.70703 38005 ft 425 kts 229°
2026-04-30 14:00 20.06751 -66.77168 38004 ft 414 kts 229°
2026-04-30 14:01 20.04693 -66.79225 38001 ft 398 kts 229°
2026-04-30 14:01 20.02707 -66.81210 37997 ft 387 kts 229°
2026-04-30 14:01 19.98805 -66.85130 38021 ft 388 kts 229°
2026-04-30 14:02 19.94850 -66.89109 38015 ft 393 kts 229°
2026-04-30 14:02 19.90863 -66.93107 38015 ft 394 kts 229°
2026-04-30 14:03 19.86891 -66.97079 37998 ft 385 kts 229°
2026-04-30 14:03 19.84964 -66.98999 37821 ft 375 kts 229°
2026-04-30 14:03 19.83090 -67.00869 37547 ft 367 kts 229°
2026-04-30 14:04 19.81242 -67.02715 37150 ft 362 kts 229°
2026-04-30 14:04 19.79416 -67.04541 36725 ft 359 kts 229°
2026-04-30 14:04 19.77607 -67.06350 36304 ft 356 kts 229°
2026-04-30 14:04 19.75809 -67.08149 35885 ft 353 kts 229°
2026-04-30 14:05 19.74027 -67.09929 35459 ft 351 kts 229°
2026-04-30 14:05 19.72255 -67.11700 35020 ft 349 kts 230°
2026-04-30 14:05 19.70491 -67.13462 34574 ft 348 kts 230°
2026-04-30 14:05 19.68733 -67.15216 34146 ft 346 kts 230°
2026-04-30 14:06 19.66983 -67.16962 33693 ft 345 kts 230°
2026-04-30 14:06 19.63536 -67.20399 32817 ft 340 kts 229°
2026-04-30 14:07 19.60066 -67.23859 31969 ft 345 kts 229°
2026-04-30 14:07 19.58278 -67.25647 31561 ft 360 kts 229°
2026-04-30 14:07 19.56463 -67.27461 31124 ft 365 kts 229°
2026-04-30 14:08 19.52766 -67.31133 30221 ft 362 kts 229°
2026-04-30 14:08 19.50929 -67.32956 29702 ft 361 kts 229°
2026-04-30 14:08 19.47288 -67.36571 28737 ft 356 kts 228°
2026-04-30 14:09 19.45486 -67.38360 28263 ft 354 kts 228°
2026-04-30 14:09 19.43697 -67.40136 27816 ft 351 kts 227°
2026-04-30 14:09 19.40156 -67.43650 26943 ft 346 kts 227°
2026-04-30 14:10 19.38403 -67.45390 26517 ft 344 kts 227°
2026-04-30 14:10 19.36660 -67.47119 26087 ft 342 kts 227°
2026-04-30 14:10 19.34930 -67.48835 25679 ft 341 kts 227°
2026-04-30 14:10 19.33206 -67.50545 25259 ft 339 kts 226°
2026-04-30 14:11 19.31486 -67.52250 24856 ft 337 kts 226°
2026-04-30 14:11 19.29778 -67.53942 24439 ft 336 kts 226°
2026-04-30 14:11 19.28075 -67.55629 24051 ft 335 kts 226°
2026-04-30 14:11 19.26377 -67.57310 23638 ft 334 kts 225°
2026-04-30 14:12 19.24685 -67.58986 23164 ft 332 kts 225°
2026-04-30 14:12 19.23002 -67.60650 22743 ft 330 kts 225°
2026-04-30 14:12 19.21331 -67.62302 22341 ft 327 kts 225°
2026-04-30 14:12 19.20235 -67.63387 22072 ft 326 kts 225°
2026-04-30 14:13 19.18032 -67.65565 21543 ft 323 kts 225°
2026-04-30 14:13 19.16396 -67.67181 21150 ft 321 kts 225°
2026-04-30 14:13 19.14767 -67.68791 20757 ft 319 kts 225°
2026-04-30 14:13 19.13150 -67.70388 20366 ft 317 kts 225°
2026-04-30 14:14 19.11571 -67.71947 19963 ft 307 kts 225°
2026-04-30 14:14 19.10064 -67.73432 19581 ft 285 kts 225°
2026-04-30 14:14 19.08657 -67.74817 19241 ft 269 kts 226°
2026-04-30 14:14 19.07322 -67.76133 18918 ft 259 kts 226°
2026-04-30 14:15 19.05958 -67.77484 18611 ft 279 kts 226°
2026-04-30 14:15 19.04471 -67.78960 18272 ft 308 kts 225°
2026-04-30 14:15 19.02868 -67.80546 17789 ft 320 kts 225°
2026-04-30 14:15 19.01238 -67.82152 17364 ft 320 kts 225°
2026-04-30 14:16 18.99612 -67.83751 16948 ft 319 kts 225°
2026-04-30 14:16 18.97993 -67.85345 16538 ft 318 kts 225°
2026-04-30 14:16 18.96378 -67.86934 16135 ft 317 kts 225°
2026-04-30 14:16 18.94766 -67.88521 15734 ft 317 kts 225°
2026-04-30 14:17 18.93156 -67.90106 15329 ft 316 kts 225°
2026-04-30 14:17 18.91547 -67.91690 14935 ft 316 kts 225°
2026-04-30 14:17 18.89938 -67.93274 14541 ft 316 kts 225°
2026-04-30 14:17 18.88328 -67.94858 14143 ft 317 kts 225°
2026-04-30 14:18 18.86716 -67.96443 13790 ft 315 kts 225°
2026-04-30 14:18 18.85135 -67.97996 13623 ft 306 kts 225°
2026-04-30 14:18 18.82525 -68.01260 13156 ft 281 kts 248°
2026-04-30 14:19 18.81095 -68.05064 12527 ft 278 kts 249°
2026-04-30 14:19 18.80376 -68.06950 12190 ft 277 kts 248°
2026-04-30 14:19 18.79654 -68.08833 11862 ft 276 kts 248°
2026-04-30 14:20 18.78931 -68.10710 11529 ft 276 kts 248°
2026-04-30 14:20 18.78207 -68.12582 11202 ft 275 kts 248°
2026-04-30 14:20 18.76758 -68.16323 10564 ft 276 kts 247°
2026-04-30 14:21 18.76030 -68.18196 10239 ft 276 kts 247°
2026-04-30 14:21 18.75303 -68.20066 9927 ft 275 kts 247°
2026-04-30 14:21 18.73860 -68.23773 9253 ft 274 kts 247°
2026-04-30 14:22 18.73138 -68.25629 8934 ft 273 kts 246°
2026-04-30 14:22 18.71706 -68.29306 8653 ft 267 kts 247°
2026-04-30 14:22 18.71002 -68.31116 8570 ft 266 kts 246°
2026-04-30 14:23 18.69574 -68.34737 8292 ft 263 kts 245°
2026-04-30 14:23 18.68213 -68.38141 7457 ft 247 kts 246°
2026-04-30 14:24 18.67128 -68.40870 6925 ft 238 kts 247°
2026-04-30 14:24 18.66486 -68.42485 6621 ft 238 kts 246°
2026-04-30 14:25 18.65218 -68.45672 6066 ft 236 kts 247°
2026-04-30 14:25 18.63946 -68.48872 5556 ft 239 kts 247°
2026-04-30 14:26 18.62633 -68.52182 4991 ft 251 kts 246°
2026-04-30 14:26 18.61975 -68.53867 4606 ft 241 kts 246°
2026-04-30 14:26 18.60822 -68.56902 3977 ft 205 kts 246°
2026-04-30 14:27 18.60052 -68.58081 3588 ft 190 kts 213°
2026-04-30 14:27 18.58839 -68.58468 3294 ft 183 kts 173°
2026-04-30 14:27 18.57635 -68.58116 3050 ft 185 kts 158°
2026-04-30 14:28 18.55331 -68.56954 2411 ft 183 kts 127°
2026-04-30 14:28 18.54643 -68.55855 2144 ft 180 kts 121°
2026-04-30 14:28 18.54103 -68.54689 2033 ft 173 kts 109°
2026-04-30 14:28 18.53841 -68.53525 1952 ft 152 kts 96°
2026-04-30 14:29 18.53895 -68.51318 1962 ft 142 kts 83°
2026-04-30 14:29 18.54242 -68.49392 1970 ft 134 kts 80°
2026-04-30 14:30 18.54925 -68.46527 1841 ft 138 kts 79°
2026-04-30 14:31 18.55382 -68.44588 1389 ft 134 kts 76°
2026-04-30 14:31 18.55868 -68.42692 1111 ft 135 kts 77°
2026-04-30 14:31 18.56114 -68.41761 992 ft 135 kts 77°
2026-04-30 14:32 18.56391 -68.39794 661 ft 136 kts 85°
2026-04-30 14:32 18.56519 -68.38811 392 ft 137 kts 85°
2026-04-30 14:32 18.56614 -68.37806 134 ft 135 kts 87°
2026-04-30 14:33 18.56693 -68.36875 51 ft 114 kts 85°
2026-04-30 14:33 18.56777 -68.35825 48 ft 23 kts 110°
2026-04-30 14:33 18.56655 -68.35786 49 ft 19 kts 175°
2026-04-30 14:34 18.56531 -68.35796 54 ft 16 kts 222°
2026-04-30 14:34 18.56509 -68.35905 51 ft 16 kts 264°
2026-04-30 14:34 18.56497 -68.36020 53 ft 16 kts 265°
2026-04-30 14:34 18.56490 -68.36135 50 ft 16 kts 266°
2026-04-30 14:35 18.56469 -68.36363 51 ft 14 kts 265°
2026-04-30 14:35 18.56398 -68.36397 49 ft 13 kts 174°
2026-04-30 14:35 18.56385 -68.36395 52 ft 0 kts 174°